Location: Newark
(44.3449°N, 4.8694°E)
Time: 02:25:54
(UTC+00:00)

Envisat - Pass Details

Date: 24 January 2020
Orbit: 764 x 766 km, 98.1° (Epoch: 25 February)

Event Time Altitude Azimuth Distance (km) Brightness Sun altitude
Rises 18:04:16 0° 186° (S) 3,219 6.5 -15.3°
Reaches altitude 10° 18:06:42 10° 193° (SSW) 2,297 5.8 -15.8°
Maximum altitude 18:11:26 40° 263° (W) 1,130 4.5 -16.6°
Drops below altitude 10° 18:16:12 10° 332° (NNW) 2,313 5.7 -17.4°
Sets 18:18:40 0° 340° (NNW) 3,244 6.4 -17.9°
